EUTELSAT 65 WEST A

Last updated on Wed Mar 11 2026 00:02:54 GMT+0000 (Coordinated Universal Time)

1 41382U 16014A 26069.49081435 -.00000274 00000+0 00000+0 0 9999 2 41382 0.0547 7.5158 0002159 352.8098 279.3112 1.00268269 36541
UTC large
Height (km)
Speed (km/s)
/
Latitude / Longitude
Inclination (degrees)
Orbital Period (minutes)
Azimuth
Elevation
Range (km)
Doppler Factor

Next 0 passes for location: London (51.5072 / 0.1276)

Sorry there are no passes over London.